TimeEST,TemperatureF,Dew PointF,Humidity,Sea Level PressureIn,VisibilityMPH,Wind Direction,Wind SpeedMPH,Gust SpeedMPH,PrecipitationIn,Events,Conditions,WindDirDegrees,DateUTC
12:15 AM,52.7,52.7,100,29.86,5.0,SW,3.5,-,N/A,,Overcast,230,2012-12-08 05:15:00
12:35 AM,52.7,52.7,100,29.86,7.0,SW,3.5,-,N/A,,Overcast,220,2012-12-08 05:35:00
12:55 AM,52.7,52.7,100,29.85,7.0,SSW,3.5,-,N/A,,Overcast,210,2012-12-08 05:55:00
1:15 AM,52.7,52.7,100,29.85,7.0,SW,4.6,-,N/A,,Mostly Cloudy,220,2012-12-08 06:15:00
1:35 AM,52.7,52.7,100,29.85,5.0,SSW,5.8,-,N/A,,Mostly Cloudy,210,2012-12-08 06:35:00
1:55 AM,48.7,48.7,100,29.85,4.0,SW,4.6,-,N/A,,Mostly Cloudy,230,2012-12-08 06:55:00
2:15 AM,49.8,49.8,100,29.85,4.0,SW,3.5,-,N/A,,Overcast,220,2012-12-08 07:15:00
2:35 AM,50.2,50.2,100,29.86,4.0,Calm,Calm,-,N/A,,Overcast,0,2012-12-08 07:35:00
2:55 AM,49.6,49.6,100,29.87,4.0,Calm,Calm,-,N/A,,Mostly Cloudy,0,2012-12-08 07:55:00
3:15 AM,49.5,49.5,100,29.87,3.0,Calm,Calm,-,N/A,,Mostly Cloudy,0,2012-12-08 08:15:00
3:55 AM,50.2,50.2,100,29.85,4.0,Calm,Calm,-,N/A,,Overcast,0,2012-12-08 08:55:00
4:15 AM,47.8,47.8,100,29.85,2.5,Calm,Calm,-,N/A,,Mostly Cloudy,0,2012-12-08 09:15:00
4:35 AM,47.7,47.7,100,29.85,1.8,Calm,Calm,-,N/A,,Overcast,0,2012-12-08 09:35:00
4:55 AM,47.7,47.7,100,29.85,2.0,Calm,Calm,-,N/A,,Overcast,0,2012-12-08 09:55:00
5:15 AM,47.7,47.7,100,29.85,2.5,Calm,Calm,-,N/A,,Overcast,0,2012-12-08 10:15:00
5:35 AM,49.6,49.6,100,29.85,2.0,Calm,Calm,-,N/A,,Overcast,0,2012-12-08 10:35:00
6:15 AM,49.1,49.1,100,29.85,2.0,Calm,Calm,-,N/A,Rain,Light Rain,0,2012-12-08 11:15:00
6:35 AM,49.1,49.1,100,29.87,2.0,Calm,Calm,-,N/A,Rain,Light Rain,0,2012-12-08 11:35:00
6:55 AM,50.2,50.2,100,29.87,2.5,Calm,Calm,-,N/A,,Overcast,0,2012-12-08 11:55:00
7:15 AM,52.7,52.7,100,29.86,3.0,South,6.9,-,N/A,Rain,Light Rain,190,2012-12-08 12:15:00
7:35 AM,52.7,52.7,100,29.87,2.5,WSW,3.5,-,N/A,Rain,Rain,250,2012-12-08 12:35:00
7:55 AM,52.7,52.7,100,29.87,2.5,Calm,Calm,-,N/A,,Overcast,0,2012-12-08 12:55:00
8:15 AM,52.7,52.7,100,29.88,2.5,SW,4.6,-,N/A,Rain,Light Rain,230,2012-12-08 13:15:00
8:35 AM,52.7,52.7,100,29.89,1.5,Calm,Calm,-,N/A,Rain,Rain,0,2012-12-08 13:35:00
8:55 AM,52.7,52.7,100,29.89,2.0,WSW,4.6,-,N/A,,Overcast,240,2012-12-08 13:55:00
9:15 AM,52.7,52.7,100,29.89,2.0,SW,4.6,-,N/A,Rain,Light Rain,230,2012-12-08 14:15:00
9:35 AM,52.7,52.7,100,29.90,1.8,West,4.6,-,N/A,,Drizzle,270,2012-12-08 14:35:00
9:55 AM,52.7,52.7,100,29.90,2.5,West,3.5,-,N/A,Rain,Light Rain,260,2012-12-08 14:55:00
10:15 AM,52.7,52.7,100,29.91,3.0,WSW,3.5,-,N/A,,Light Drizzle,240,2012-12-08 15:15:00
10:35 AM,52.7,52.7,100,29.91,4.0,West,5.8,-,N/A,,Overcast,260,2012-12-08 15:35:00
10:55 AM,52.7,52.7,100,29.90,4.0,Calm,Calm,-,N/A,,Light Drizzle,0,2012-12-08 15:55:00
11:15 AM,52.7,52.7,100,29.90,4.0,SW,3.5,-,N/A,,Overcast,220,2012-12-08 16:15:00
11:35 AM,52.7,52.7,100,29.90,3.0,SW,4.6,-,N/A,,Overcast,220,2012-12-08 16:35:00
11:55 AM,52.7,52.7,100,29.90,3.0,WSW,3.5,-,N/A,,Overcast,240,2012-12-08 16:55:00
12:15 PM,52.7,52.7,100,29.90,4.0,WSW,5.8,-,N/A,,Overcast,250,2012-12-08 17:15:00
12:35 PM,52.7,52.7,100,29.91,5.0,West,6.9,-,N/A,,Light Drizzle,260,2012-12-08 17:35:00
12:55 PM,52.7,52.7,100,29.91,5.0,West,8.1,-,N/A,,Overcast,260,2012-12-08 17:55:00
1:15 PM,52.9,52.5,99,29.91,5.0,West,4.6,-,N/A,,Overcast,280,2012-12-08 18:15:00
1:35 PM,53.6,52.9,97,29.91,7.0,West,4.6,-,N/A,,Overcast,280,2012-12-08 18:35:00
1:55 PM,55.0,53.6,95,29.91,7.0,WNW,5.8,-,N/A,,Overcast,290,2012-12-08 18:55:00
2:15 PM,55.4,53.1,92,29.92,10.0,West,5.8,-,N/A,,Overcast,270,2012-12-08 19:15:00
2:35 PM,54.7,52.3,92,29.92,10.0,NW,9.2,-,N/A,,Overcast,310,2012-12-08 19:35:00
2:55 PM,52.7,51.1,94,29.94,10.0,NW,9.2,-,N/A,,Overcast,320,2012-12-08 19:55:00
3:15 PM,52.7,51.3,95,29.95,10.0,NNW,9.2,-,N/A,,Overcast,330,2012-12-08 20:15:00
3:35 PM,52.7,51.6,96,29.95,10.0,NNW,6.9,-,N/A,,Overcast,340,2012-12-08 20:35:00
3:55 PM,52.7,51.8,97,29.96,10.0,NNW,5.8,-,N/A,,Overcast,330,2012-12-08 20:55:00
4:15 PM,52.7,51.8,97,29.96,10.0,NNW,8.1,-,N/A,,Overcast,340,2012-12-08 21:15:00
4:35 PM,52.7,51.8,97,29.98,10.0,NNW,3.5,-,N/A,,Overcast,340,2012-12-08 21:35:00
4:55 PM,50.2,49.3,97,29.98,10.0,North,9.2,-,N/A,,Overcast,350,2012-12-08 21:55:00
5:15 PM,50.2,49.1,96,29.98,10.0,NNW,6.9,-,N/A,,Overcast,340,2012-12-08 22:15:00
5:35 PM,50.2,49.1,96,29.99,10.0,North,8.1,-,N/A,,Overcast,350,2012-12-08 22:35:00
5:55 PM,49.1,47.8,95,30.00,10.0,North,6.9,-,N/A,,Overcast,350,2012-12-08 22:55:00
6:15 PM,48.9,47.7,95,30.01,10.0,North,8.1,-,N/A,,Overcast,350,2012-12-08 23:15:00
6:35 PM,47.7,46.8,97,30.01,10.0,North,5.8,-,N/A,,Overcast,350,2012-12-08 23:35:00
6:55 PM,47.7,46.8,97,30.02,10.0,North,6.9,-,N/A,,Overcast,360,2012-12-08 23:55:00
7:15 PM,47.7,46.9,97,30.03,10.0,North,5.8,-,N/A,,Overcast,360,2012-12-09 00:15:00
7:35 PM,47.7,46.4,95,30.04,10.0,North,4.6,-,N/A,,Overcast,350,2012-12-09 00:35:00
7:55 PM,47.7,46.4,95,30.04,10.0,North,5.8,-,N/A,,Overcast,360,2012-12-09 00:55:00
8:15 PM,47.7,46.0,94,30.04,10.0,North,5.8,-,N/A,,Overcast,10,2012-12-09 01:15:00
8:35 PM,47.7,46.0,94,30.05,10.0,NNE,5.8,-,N/A,,Overcast,30,2012-12-09 01:35:00
9:15 PM,47.7,46.4,95,30.03,10.0,NNE,4.6,-,N/A,,Overcast,30,2012-12-09 02:15:00
9:35 PM,47.7,46.4,95,30.03,10.0,NE,6.9,-,N/A,,Overcast,40,2012-12-09 02:35:00
9:55 PM,47.7,46.9,97,30.04,7.0,ENE,4.6,-,N/A,,Overcast,70,2012-12-09 02:55:00
10:15 PM,47.7,47.3,99,30.04,7.0,NE,4.6,-,N/A,,Mostly Cloudy,50,2012-12-09 03:15:00
10:35 PM,47.7,47.7,100,30.05,7.0,NNE,4.6,-,N/A,,Overcast,30,2012-12-09 03:35:00
10:55 PM,47.7,47.5,99,30.05,7.0,NNE,5.8,-,N/A,,Overcast,30,2012-12-09 03:55:00
11:15 PM,47.7,47.5,99,30.05,7.0,NNE,5.8,-,N/A,,Overcast,30,2012-12-09 04:15:00
11:35 PM,47.7,47.3,99,30.05,7.0,ENE,5.8,-,N/A,,Overcast,60,2012-12-09 04:35:00
11:55 PM,47.7,47.5,99,30.05,7.0,ENE,8.1,-,N/A,,Overcast,60,2012-12-09 04:55:00